Showing default

EXPLORER 38 (RAE-A), 3307

Orbit data source: Space-Track

EXPLORER 38 (RAE-A), 3307 is a payload satellite owned by GSFC (US) that was launched on Thu, 04 Jul 1968 UTC via a THOR DELTA J launch vehicle from the Air Force Western Test Range (AFWTR). Payload-class satellites include a variety of spacecraft equipped with specific instruments for various scientific and technological missions. These include communications satellites like Starlink; space stations such as the ISS; scientific satellites like the Hubble; Earth observation satellites from companies like Planet Labs, Umbra, and HawkEye 360; GPS; miniature CubeSats for education and research; and military/defense satellites.

Loading next visibility...
Identifier
3307, 1968-055A
Orbit
Active
Country
Flag of USUS
Related business
Manufacturer
GSFC/FAIRH
Mission
Spacecraft
Bus & Motor
RAE, Unknown motor
Mass
189 kg wet, 189 kg dry
Launch date (UTC)
1968-07-04 (57 years ago)
Launch vehicle
THOR DELTA J
Launch site
Air Force Western Test Range (AFWTR)
Object type
Payload
Rocket body
Debris
Shape & HBR
Unknown
Radar Cross Section
Large (>1 m²)

Expand to show TLE details & history
Last TLE update: 2 days ago

TLE from 2 days ago
0 EXPLORER 38 (RAE-A)
1 03307U 68055A   25349.70817546 -.00000010  00000-0  00000-0 0  9990
2 03307 120.8685  66.8991 0013569 274.8237  85.0815  6.42414512347641
Epoch: 2025-12-15T16:59Z
TLE epoch observation values (Epoch: 2025-12-15T16:59:46.359Z)
Latitude
-0.00006°
Longitude
87.35311°
Altitude
5,844.705 km
Speed
5.712 km/s
True Right ascension
04h 27m 35s
True Declination
0° 00' 00"
Sunlit
Object was in full shadow at epoch
Visualization orbit readout
Latitude
Unknown
Longitude
Unknown
Altitude
Unknown
Speed
Unknown
Apparent Right ascension
Unknown
Apparent Declination
Unknown
Sunlit
N/A
Visualization observer readout
Local Sidereal Time
09:10:14
Azimuth
Unknown
Elevation
Unknown
Doppler factor
Unknown
Orbital elements
Apogee altitude
5,861.466 km
Perigee altitude
5,828.295 km
Semi-major axis
12,223.017 km
Eccentricity
0.00136
Inclination
120.8685°
RAAN
66.8991°
Arg. of periapsis
274.8237°
True anomaly
85.23644°
Mean anomaly
85.0815°
Eccentric anomaly
85.15897°
Mean motion
1.60611 °/min
Orbital period
224.14 mins
BSTAR
0
Loading maneuver chart data...
Computing Atmospheric mass density...
Loading historical data...
Loading historical data...
Loading historical data...
Loading historical data...
Loading historical data...
Loading historical data...
Loading historical data...

Documentation

Showing up to 5 results
|